Find Starlink 32180

NORAD ID: 60374 Int'l Des: 2024-138 Owner: SPXS Country: US Constellation: starlink operational
LEOCIRCULAR

当前视图

正在加载3D地球...

About Starlink 32180

Starlink 32180 (NORAD 60374) is a starlink constellation satellite (v2 mini) launched Aug 4, 2024 by SPXS of US. It operates in LEO, CIRCULAR orbit with a mass of 730.00 kg.

关于 Starlink 32180

正在加载描述...

即将过境

Passes for default location (London). Set your location on the main map for personalized predictions.

高度历史

Loading altitude history...

两行轨道根数

1 60374U 24138V 26175.28643577 .00000572 00000-0 30177-4 0 9997
2 60374 53.1602 174.0756 0001190 88.1894 271.9244 15.31703558106956
Epoch: Jun 24, 2026 • Age: 24 hours

当前状态

高度 471.4 km
速度 7.63 km/s
星下点 25.91°N, 50.31°W
发射日期 Aug 4, 2024
运行时间 1.8 years
类型 internet

技术详情

分类 Payload
质量 730.00 kg
干质量 700.00 kg
总质量 730.00 kg
长度 0.30 m
直径 4.10 m
跨度 29.00 m
形状 Box + pan
制造商 SPXS
平台类型 Starlink V2M
阶段状态 In Orbit
所有者/国家 SPXS/US

Most Searched